Year,Month,Day,Hour,Minute,Value (Times are PST for temperature in C)
2013,05,22,00,00,9.60
2013,05,22,00,01,9.60
2013,05,22,00,02,9.60
2013,05,22,00,03,9.60
2013,05,22,00,04,9.60
2013,05,22,00,05,9.60
2013,05,22,00,06,9.60
2013,05,22,00,07,9.60
2013,05,22,00,08,9.60
2013,05,22,00,09,9.60
2013,05,22,00,10,9.60
2013,05,22,00,11,9.60
2013,05,22,00,12,9.60
2013,05,22,00,13,9.60
2013,05,22,00,14,9.70
2013,05,22,00,15,9.70
2013,05,22,00,16,9.70
2013,05,22,00,17,9.70
2013,05,22,00,18,9.70
2013,05,22,00,19,9.70
2013,05,22,00,20,9.70
2013,05,22,00,21,9.70
2013,05,22,00,22,9.70
2013,05,22,00,23,9.70
2013,05,22,00,24,9.70
2013,05,22,00,25,9.70
2013,05,22,00,26,9.70
2013,05,22,00,27,9.70
2013,05,22,00,28,9.70
2013,05,22,00,29,9.70
2013,05,22,00,30,9.70
2013,05,22,00,31,9.70
2013,05,22,00,32,9.70
2013,05,22,00,33,9.70
2013,05,22,00,34,9.70
2013,05,22,00,35,9.70
2013,05,22,00,36,9.70
2013,05,22,00,37,9.70
2013,05,22,00,38,9.70
2013,05,22,00,39,9.70
2013,05,22,00,40,9.70
2013,05,22,00,41,9.70
2013,05,22,00,42,9.70
2013,05,22,00,43,9.70
2013,05,22,00,44,9.70
2013,05,22,00,45,9.70
2013,05,22,00,46,9.70
2013,05,22,00,47,9.70
2013,05,22,00,48,9.70
2013,05,22,00,49,9.70
2013,05,22,00,50,9.70
2013,05,22,00,51,9.80
2013,05,22,00,52,9.80
2013,05,22,00,53,9.80
2013,05,22,00,54,9.80
2013,05,22,00,55,9.80
2013,05,22,00,56,9.80
2013,05,22,00,57,9.80
2013,05,22,00,58,9.80
2013,05,22,00,59,9.90
2013,05,22,01,00,9.90
2013,05,22,01,01,9.90
2013,05,22,01,02,9.90
2013,05,22,01,03,9.90
2013,05,22,01,04,9.80
2013,05,22,01,05,9.80
2013,05,22,01,06,9.80
2013,05,22,01,07,9.80
2013,05,22,01,08,9.80
2013,05,22,01,09,9.80
2013,05,22,01,10,9.80
2013,05,22,01,11,9.80
2013,05,22,01,12,9.80
2013,05,22,01,13,9.80
2013,05,22,01,14,9.70
2013,05,22,01,15,9.70
2013,05,22,01,16,9.70
2013,05,22,01,17,9.70
2013,05,22,01,18,9.70
2013,05,22,01,19,9.70
2013,05,22,01,20,9.70
2013,05,22,01,21,9.60
2013,05,22,01,22,9.60
2013,05,22,01,23,9.60
2013,05,22,01,24,9.60
2013,05,22,01,25,9.50
2013,05,22,01,26,9.50
2013,05,22,01,27,9.50
2013,05,22,01,28,9.50
2013,05,22,01,29,9.50
2013,05,22,01,30,9.40
2013,05,22,01,31,9.40
2013,05,22,01,32,9.40
2013,05,22,01,33,9.40
2013,05,22,01,34,9.30
2013,05,22,01,35,9.30
2013,05,22,01,36,9.30
2013,05,22,01,37,9.30
2013,05,22,01,38,9.30
2013,05,22,01,39,9.20
2013,05,22,01,40,9.20
2013,05,22,01,41,9.20
2013,05,22,01,42,9.20
2013,05,22,01,43,9.20
2013,05,22,01,44,9.20
2013,05,22,01,45,9.20
2013,05,22,01,46,9.20
2013,05,22,01,47,9.20
2013,05,22,01,48,9.20
2013,05,22,01,49,9.20
2013,05,22,01,50,9.10
2013,05,22,01,51,9.10
2013,05,22,01,52,9.10
2013,05,22,01,53,9.10
2013,05,22,01,54,9.10
2013,05,22,01,55,9.10
2013,05,22,01,56,9.10
2013,05,22,01,57,9.10
2013,05,22,01,58,9.10
2013,05,22,01,59,9.20
2013,05,22,02,00,9.20
2013,05,22,02,01,9.20
2013,05,22,02,02,9.20
2013,05,22,02,03,9.20
2013,05,22,02,04,9.10
2013,05,22,02,05,9.10
2013,05,22,02,06,9.10
2013,05,22,02,07,9.10
2013,05,22,02,08,9.10
2013,05,22,02,09,9.10
2013,05,22,02,10,9.10
2013,05,22,02,11,9.00
2013,05,22,02,12,9.00
2013,05,22,02,13,9.00
2013,05,22,02,14,9.00
2013,05,22,02,15,9.00
2013,05,22,02,16,9.00
2013,05,22,02,17,9.00
2013,05,22,02,18,9.00
2013,05,22,02,19,9.00
2013,05,22,02,20,9.00
2013,05,22,02,21,9.00
2013,05,22,02,22,9.00
2013,05,22,02,23,9.00
2013,05,22,02,24,9.00
2013,05,22,02,25,9.10
2013,05,22,02,26,9.10
2013,05,22,02,27,9.10
2013,05,22,02,28,9.10
2013,05,22,02,29,9.10
2013,05,22,02,30,9.10
2013,05,22,02,31,9.10
2013,05,22,02,32,9.10
2013,05,22,02,33,9.10
2013,05,22,02,34,9.10
2013,05,22,02,35,9.10
2013,05,22,02,36,9.10
2013,05,22,02,37,9.10
2013,05,22,02,38,9.10
2013,05,22,02,39,9.10
2013,05,22,02,40,9.10
2013,05,22,02,41,9.10
2013,05,22,02,42,9.10
2013,05,22,02,43,9.10
2013,05,22,02,44,9.10
2013,05,22,02,45,9.10
2013,05,22,02,46,9.10
2013,05,22,02,47,9.00
2013,05,22,02,48,9.00
2013,05,22,02,49,9.00
2013,05,22,02,50,9.00
2013,05,22,02,51,9.00
2013,05,22,02,52,9.00
2013,05,22,02,53,9.00
2013,05,22,02,54,9.00
2013,05,22,02,55,9.00
2013,05,22,02,56,9.00
2013,05,22,02,57,9.00
2013,05,22,02,58,9.00
2013,05,22,02,59,9.00
2013,05,22,03,00,9.00
2013,05,22,03,01,9.00
2013,05,22,03,02,9.00
2013,05,22,03,03,9.00
2013,05,22,03,04,9.00
2013,05,22,03,05,9.00
2013,05,22,03,06,9.00
2013,05,22,03,07,8.90
2013,05,22,03,08,8.90
2013,05,22,03,09,8.90
2013,05,22,03,10,8.90
2013,05,22,03,11,8.80
2013,05,22,03,12,8.80
2013,05,22,03,13,8.80
2013,05,22,03,14,8.80
2013,05,22,03,15,8.70
2013,05,22,03,16,8.70
2013,05,22,03,17,8.70
2013,05,22,03,18,8.70
2013,05,22,03,19,8.70
2013,05,22,03,20,8.70
2013,05,22,03,21,8.70
2013,05,22,03,22,8.70
2013,05,22,03,23,8.70
2013,05,22,03,24,8.70
2013,05,22,03,25,8.70
2013,05,22,03,26,8.70
2013,05,22,03,27,8.70
2013,05,22,03,28,8.70
2013,05,22,03,29,8.70
2013,05,22,03,30,8.70
2013,05,22,03,31,8.70
2013,05,22,03,32,8.70
2013,05,22,03,33,8.70
2013,05,22,03,34,8.70
2013,05,22,03,35,8.80
2013,05,22,03,36,8.80
2013,05,22,03,37,8.80
2013,05,22,03,38,8.80
2013,05,22,03,39,8.80
2013,05,22,03,40,8.80
2013,05,22,03,41,8.90
2013,05,22,03,42,8.90
2013,05,22,03,43,8.90
2013,05,22,03,44,9.00
2013,05,22,03,45,9.00
2013,05,22,03,46,9.10
2013,05,22,03,47,9.10
2013,05,22,03,48,9.20
2013,05,22,03,49,9.20
2013,05,22,03,50,9.20
2013,05,22,03,51,9.30
2013,05,22,03,52,9.30
2013,05,22,03,53,9.30
2013,05,22,03,54,9.30
2013,05,22,03,55,9.30
2013,05,22,03,56,9.30
2013,05,22,03,57,9.40
2013,05,22,03,58,9.40
2013,05,22,03,59,9.40
2013,05,22,04,00,9.30
2013,05,22,04,01,9.40
2013,05,22,04,02,9.30
2013,05,22,04,03,9.30
2013,05,22,04,04,9.30
2013,05,22,04,05,9.30
2013,05,22,04,06,9.30
2013,05,22,04,07,9.30
2013,05,22,04,08,9.30
2013,05,22,04,09,9.30
2013,05,22,04,10,9.30
2013,05,22,04,11,9.30
2013,05,22,04,12,9.20
2013,05,22,04,13,9.20
2013,05,22,04,14,9.20
2013,05,22,04,15,9.20
2013,05,22,04,16,9.20
2013,05,22,04,17,9.20
2013,05,22,04,18,9.20
2013,05,22,04,19,9.20
2013,05,22,04,20,9.20
2013,05,22,04,21,9.20
2013,05,22,04,22,9.20
2013,05,22,04,23,9.20
2013,05,22,04,24,9.20
2013,05,22,04,25,9.20
2013,05,22,04,26,9.10
2013,05,22,04,27,9.10
2013,05,22,04,28,9.10
2013,05,22,04,29,9.10
2013,05,22,04,30,9.10
2013,05,22,04,31,9.10
2013,05,22,04,32,9.10
2013,05,22,04,33,9.00
2013,05,22,04,34,9.00
2013,05,22,04,35,9.00
2013,05,22,04,36,9.00
2013,05,22,04,37,9.00
2013,05,22,04,38,9.00
2013,05,22,04,39,9.00
2013,05,22,04,40,9.00
2013,05,22,04,41,9.00
2013,05,22,04,42,8.90
2013,05,22,04,43,8.90
2013,05,22,04,44,8.90
2013,05,22,04,45,8.90
2013,05,22,04,46,9.00
2013,05,22,04,47,9.00
2013,05,22,04,48,9.00
2013,05,22,04,49,9.00
2013,05,22,04,50,9.00
2013,05,22,04,51,9.00
2013,05,22,04,52,9.00
2013,05,22,04,53,9.00
2013,05,22,04,54,9.00
2013,05,22,04,55,9.00
2013,05,22,04,56,9.00
2013,05,22,04,57,9.00
2013,05,22,04,58,8.90
2013,05,22,04,59,8.90
2013,05,22,05,00,8.90
2013,05,22,05,01,8.90
2013,05,22,05,02,8.90
2013,05,22,05,03,8.90
2013,05,22,05,04,8.80
2013,05,22,05,05,8.80
2013,05,22,05,06,8.80
2013,05,22,05,07,8.80
2013,05,22,05,08,8.80
2013,05,22,05,09,8.80
2013,05,22,05,10,8.70
2013,05,22,05,11,8.70
2013,05,22,05,12,8.70
2013,05,22,05,13,8.70
2013,05,22,05,14,8.70
2013,05,22,05,15,8.70
2013,05,22,05,16,8.70
2013,05,22,05,17,8.70
2013,05,22,05,18,8.70
2013,05,22,05,19,8.70
2013,05,22,05,20,8.70
2013,05,22,05,21,8.70
2013,05,22,05,22,8.70
2013,05,22,05,23,8.70
2013,05,22,05,24,8.70
2013,05,22,05,25,8.60
2013,05,22,05,26,8.60
2013,05,22,05,27,8.60
2013,05,22,05,28,8.50
2013,05,22,05,29,8.50
2013,05,22,05,30,8.50
2013,05,22,05,31,8.50
2013,05,22,05,32,8.40
2013,05,22,05,33,8.40
2013,05,22,05,34,8.40
2013,05,22,05,35,8.40
2013,05,22,05,36,8.30
2013,05,22,05,37,8.30
2013,05,22,05,38,8.30
2013,05,22,05,39,8.30
2013,05,22,05,40,8.30
2013,05,22,05,41,8.20
2013,05,22,05,42,8.20
2013,05,22,05,43,8.20
2013,05,22,05,44,8.20
2013,05,22,05,45,8.20
2013,05,22,05,46,8.20
2013,05,22,05,47,8.20
2013,05,22,05,48,8.20
2013,05,22,05,49,8.20
2013,05,22,05,50,8.20
2013,05,22,05,51,8.30
2013,05,22,05,52,8.30
2013,05,22,05,53,8.30
2013,05,22,05,54,8.30
2013,05,22,05,55,8.30
2013,05,22,05,56,8.30
2013,05,22,05,57,8.30
2013,05,22,05,58,8.30
2013,05,22,05,59,8.30
2013,05,22,06,00,8.30
2013,05,22,06,01,8.30
2013,05,22,06,02,8.30
2013,05,22,06,03,8.40
2013,05,22,06,04,8.40
2013,05,22,06,05,8.40
2013,05,22,06,06,8.40
2013,05,22,06,07,8.40
2013,05,22,06,08,8.40
2013,05,22,06,09,8.40
2013,05,22,06,10,8.40
2013,05,22,06,11,8.40
2013,05,22,06,12,8.40
2013,05,22,06,13,8.50
2013,05,22,06,14,8.50
2013,05,22,06,15,8.50
2013,05,22,06,16,8.50
2013,05,22,06,17,8.50
2013,05,22,06,18,8.60
2013,05,22,06,19,8.60
2013,05,22,06,20,8.60
2013,05,22,06,21,8.60
2013,05,22,06,22,8.70
2013,05,22,06,23,8.70
2013,05,22,06,24,8.70
2013,05,22,06,25,8.70
2013,05,22,06,26,8.70
2013,05,22,06,27,8.80
2013,05,22,06,28,8.80
2013,05,22,06,29,8.90
2013,05,22,06,30,8.90
2013,05,22,06,31,9.00
2013,05,22,06,32,9.00
2013,05,22,06,33,9.00
2013,05,22,06,34,9.10
2013,05,22,06,35,9.10
2013,05,22,06,36,9.10
2013,05,22,06,37,9.20
2013,05,22,06,38,9.20
2013,05,22,06,39,9.20
2013,05,22,06,40,9.20
2013,05,22,06,41,9.30
2013,05,22,06,42,9.30
2013,05,22,06,43,9.40
2013,05,22,06,44,9.40
2013,05,22,06,45,9.50
2013,05,22,06,46,9.50
2013,05,22,06,47,9.60
2013,05,22,06,48,9.60
2013,05,22,06,49,9.70
2013,05,22,06,50,9.70
2013,05,22,06,51,9.80
2013,05,22,06,52,9.90
2013,05,22,06,53,9.90
2013,05,22,06,54,10.10
2013,05,22,06,55,10.10
2013,05,22,06,56,10.20
2013,05,22,06,57,10.20
2013,05,22,06,58,10.30
2013,05,22,06,59,10.30
2013,05,22,07,00,10.40
2013,05,22,07,01,10.30
2013,05,22,07,02,10.30
2013,05,22,07,03,10.40
2013,05,22,07,04,10.40
2013,05,22,07,05,10.40
2013,05,22,07,06,10.40
2013,05,22,07,07,10.40
2013,05,22,07,08,10.40
2013,05,22,07,09,10.40
2013,05,22,07,10,10.40
2013,05,22,07,11,10.40
2013,05,22,07,12,10.40
2013,05,22,07,13,10.40
2013,05,22,07,14,10.40
2013,05,22,07,15,10.40
2013,05,22,07,16,10.40
2013,05,22,07,17,10.60
2013,05,22,07,18,10.60
2013,05,22,07,19,10.60
2013,05,22,07,20,10.60
2013,05,22,07,21,10.60
2013,05,22,07,22,10.60
2013,05,22,07,23,10.60
2013,05,22,07,24,10.60
2013,05,22,07,25,10.60
2013,05,22,07,26,10.60
2013,05,22,07,27,10.50
2013,05,22,07,28,10.40
2013,05,22,07,29,10.40
2013,05,22,07,30,10.40
2013,05,22,07,31,10.40
2013,05,22,07,32,10.30
2013,05,22,07,33,10.30
2013,05,22,07,34,10.30
2013,05,22,07,35,10.30
2013,05,22,07,36,10.30
2013,05,22,07,37,10.30
2013,05,22,07,38,10.30
2013,05,22,07,39,10.30
2013,05,22,07,40,10.30
2013,05,22,07,41,10.30
2013,05,22,07,42,10.30
2013,05,22,07,43,10.30
2013,05,22,07,44,10.30
2013,05,22,07,45,10.30
2013,05,22,07,46,10.40
2013,05,22,07,47,10.40
2013,05,22,07,48,10.40
2013,05,22,07,49,10.40
2013,05,22,07,50,10.40
2013,05,22,07,51,10.40
2013,05,22,07,52,10.40
2013,05,22,07,53,10.40
2013,05,22,07,54,10.30
2013,05,22,07,55,10.30
2013,05,22,07,56,10.30
2013,05,22,07,57,10.30
2013,05,22,07,58,10.30
2013,05,22,07,59,10.30
2013,05,22,08,00,10.30
2013,05,22,08,01,10.30
2013,05,22,08,02,10.30
2013,05,22,08,03,10.30
2013,05,22,08,04,10.30
2013,05,22,08,05,10.20
2013,05,22,08,06,10.20
2013,05,22,08,07,10.20
2013,05,22,08,08,10.20
2013,05,22,08,09,10.20
2013,05,22,08,10,10.20
2013,05,22,08,11,10.20
2013,05,22,08,12,10.20
2013,05,22,08,13,10.30
2013,05,22,08,14,10.30
2013,05,22,08,15,10.30
2013,05,22,08,16,10.30
2013,05,22,08,17,10.30
2013,05,22,08,18,10.30
2013,05,22,08,19,10.40
2013,05,22,08,20,10.40
2013,05,22,08,21,10.40
2013,05,22,08,22,10.40
2013,05,22,08,23,10.40
2013,05,22,08,24,10.40
2013,05,22,08,25,10.40
2013,05,22,08,26,10.40
2013,05,22,08,27,10.40
2013,05,22,08,28,10.40
2013,05,22,08,29,10.40
2013,05,22,08,30,10.50
2013,05,22,08,31,10.60
2013,05,22,08,32,10.60
2013,05,22,08,33,10.60
2013,05,22,08,34,10.60
2013,05,22,08,35,10.50
2013,05,22,08,36,10.40
2013,05,22,08,37,10.50
2013,05,22,08,38,10.40
2013,05,22,08,39,10.40
2013,05,22,08,40,10.40
2013,05,22,08,41,10.40
2013,05,22,08,42,10.40
2013,05,22,08,43,10.40
2013,05,22,08,44,10.40
2013,05,22,08,45,10.50
2013,05,22,08,46,10.60
2013,05,22,08,47,10.60
2013,05,22,08,48,10.60
2013,05,22,08,49,10.70
2013,05,22,08,50,10.80
2013,05,22,08,51,10.90
2013,05,22,08,52,10.90
2013,05,22,08,53,10.90
2013,05,22,08,54,11.10
2013,05,22,08,55,11.10
2013,05,22,08,56,11.10
2013,05,22,08,57,11.10
2013,05,22,08,58,11.10
2013,05,22,08,59,11.10
2013,05,22,09,00,11.10
2013,05,22,09,01,11.10
2013,05,22,09,02,11.10
2013,05,22,09,03,11.10
2013,05,22,09,04,11.10
2013,05,22,09,05,11.10
2013,05,22,09,06,11.10
2013,05,22,09,07,11.10
2013,05,22,09,08,11.10
2013,05,22,09,09,11.00
2013,05,22,09,10,10.90
2013,05,22,09,11,10.90
2013,05,22,09,12,10.90
2013,05,22,09,13,10.90
2013,05,22,09,14,10.90
2013,05,22,09,15,10.90
2013,05,22,09,16,10.90
2013,05,22,09,17,10.90
2013,05,22,09,18,10.90
2013,05,22,09,19,10.90
2013,05,22,09,20,10.90
2013,05,22,09,21,10.90
2013,05,22,09,22,10.90
2013,05,22,09,23,10.80
2013,05,22,09,24,10.80
2013,05,22,09,25,10.80
2013,05,22,09,26,10.80
2013,05,22,09,27,10.80
2013,05,22,09,28,10.80
2013,05,22,09,29,10.80
2013,05,22,09,30,10.70
2013,05,22,09,31,10.70
2013,05,22,09,32,10.70
2013,05,22,09,33,10.70
2013,05,22,09,34,10.80
2013,05,22,09,35,10.80
2013,05,22,09,36,10.90
2013,05,22,09,37,10.90
2013,05,22,09,38,10.90
2013,05,22,09,39,10.90
2013,05,22,09,40,10.90
2013,05,22,09,41,10.90
2013,05,22,09,42,11.00
2013,05,22,09,43,11.10
2013,05,22,09,44,11.20
2013,05,22,09,45,11.40
2013,05,22,09,46,11.50
2013,05,22,09,47,11.60
2013,05,22,09,48,11.60
2013,05,22,09,49,11.70
2013,05,22,09,50,11.80
2013,05,22,09,51,11.80
2013,05,22,09,52,11.90
2013,05,22,09,53,12.00
2013,05,22,09,54,12.10
2013,05,22,09,55,12.20
2013,05,22,09,56,12.30
2013,05,22,09,57,12.20
2013,05,22,09,58,12.20
2013,05,22,09,59,12.10
2013,05,22,10,00,12.10
2013,05,22,10,01,12.10
2013,05,22,10,02,12.10
2013,05,22,10,03,12.20
2013,05,22,10,04,12.10
2013,05,22,10,05,12.10
2013,05,22,10,06,12.10
2013,05,22,10,07,12.10
2013,05,22,10,08,12.10
2013,05,22,10,09,12.10
2013,05,22,10,10,12.20
2013,05,22,10,11,12.20
2013,05,22,10,12,12.20
2013,05,22,10,13,12.20
2013,05,22,10,14,12.30
2013,05,22,10,15,12.40
2013,05,22,10,16,12.50
2013,05,22,10,17,12.60
2013,05,22,10,18,12.70
2013,05,22,10,19,12.80
2013,05,22,10,20,12.80
2013,05,22,10,21,12.80
2013,05,22,10,22,12.90
2013,05,22,10,23,12.90
2013,05,22,10,24,12.80
2013,05,22,10,25,12.90
2013,05,22,10,26,13.00
2013,05,22,10,27,13.20
2013,05,22,10,28,13.20
2013,05,22,10,29,13.30
2013,05,22,10,30,13.30
2013,05,22,10,31,13.40
2013,05,22,10,32,13.40
2013,05,22,10,33,13.50
2013,05,22,10,34,13.50
2013,05,22,10,35,13.50
2013,05,22,10,36,13.40
2013,05,22,10,37,13.30
2013,05,22,10,38,13.30
2013,05,22,10,39,13.20
2013,05,22,10,40,13.20
2013,05,22,10,41,13.20
2013,05,22,10,42,13.00
2013,05,22,10,43,12.80
2013,05,22,10,44,12.60
2013,05,22,10,45,12.50
2013,05,22,10,46,12.40
2013,05,22,10,47,12.40
2013,05,22,10,48,12.40
2013,05,22,10,49,12.40
2013,05,22,10,50,12.30
2013,05,22,10,51,12.30
2013,05,22,10,52,12.20
2013,05,22,10,53,12.20
2013,05,22,10,54,12.00
2013,05,22,10,55,12.00
2013,05,22,10,56,12.10
2013,05,22,10,57,12.00
2013,05,22,10,58,12.00
2013,05,22,10,59,12.00
2013,05,22,11,00,12.00
2013,05,22,11,01,12.00
2013,05,22,11,02,12.00
2013,05,22,11,03,12.00
2013,05,22,11,04,12.00
2013,05,22,11,05,12.00
2013,05,22,11,06,12.00
2013,05,22,11,07,12.10
2013,05,22,11,08,12.20
2013,05,22,11,09,12.30
2013,05,22,11,10,12.30
2013,05,22,11,11,12.30
2013,05,22,11,12,12.30
2013,05,22,11,13,12.30
2013,05,22,11,14,12.30
2013,05,22,11,15,12.40
2013,05,22,11,16,12.40
2013,05,22,11,17,12.40
2013,05,22,11,18,12.40
2013,05,22,11,19,12.40
2013,05,22,11,20,12.40
2013,05,22,11,21,12.40
2013,05,22,11,22,12.40
2013,05,22,11,23,12.40
2013,05,22,11,24,12.40
2013,05,22,11,25,12.30
2013,05,22,11,26,12.40
2013,05,22,11,27,12.40
2013,05,22,11,28,12.40
2013,05,22,11,29,12.40
2013,05,22,11,30,12.30
2013,05,22,11,31,12.40
2013,05,22,11,32,12.40
2013,05,22,11,33,12.50
2013,05,22,11,34,12.60
2013,05,22,11,35,12.70
2013,05,22,11,36,12.90
2013,05,22,11,37,13.00
2013,05,22,11,38,13.10
2013,05,22,11,39,13.20
2013,05,22,11,40,13.20
2013,05,22,11,41,13.10
2013,05,22,11,42,13.10
2013,05,22,11,43,13.20
2013,05,22,11,44,13.10
2013,05,22,11,45,13.10
2013,05,22,11,46,13.10
2013,05,22,11,47,13.20
2013,05,22,11,48,13.30
2013,05,22,11,49,13.30
2013,05,22,11,50,13.30
2013,05,22,11,51,13.40
2013,05,22,11,52,13.50
2013,05,22,11,53,13.60
2013,05,22,11,54,13.60
2013,05,22,11,55,13.60
2013,05,22,11,56,13.60
2013,05,22,11,57,13.50
2013,05,22,11,58,13.40
2013,05,22,11,59,13.30
2013,05,22,12,00,13.40
2013,05,22,12,01,13.50
2013,05,22,12,02,13.70
2013,05,22,12,03,13.80
2013,05,22,12,04,13.90
2013,05,22,12,05,14.10
2013,05,22,12,06,14.20
2013,05,22,12,07,14.20
2013,05,22,12,08,14.20
2013,05,22,12,09,14.20
2013,05,22,12,10,14.10
2013,05,22,12,11,14.00
2013,05,22,12,12,14.00
2013,05,22,12,13,14.10
2013,05,22,12,14,14.00
2013,05,22,12,15,14.10
2013,05,22,12,16,14.10
2013,05,22,12,17,14.00
2013,05,22,12,18,13.90
2013,05,22,12,19,14.10
2013,05,22,12,20,14.30
2013,05,22,12,21,14.50
2013,05,22,12,22,14.60
2013,05,22,12,23,14.60
2013,05,22,12,24,14.50
2013,05,22,12,25,14.60
2013,05,22,12,26,14.60
2013,05,22,12,27,14.80
2013,05,22,12,28,14.70
2013,05,22,12,29,14.60
2013,05,22,12,30,14.60
2013,05,22,12,31,14.70
2013,05,22,12,32,14.60
2013,05,22,12,33,14.60
2013,05,22,12,34,14.50
2013,05,22,12,35,14.20
2013,05,22,12,36,14.10
2013,05,22,12,37,14.00
2013,05,22,12,38,14.00
2013,05,22,12,39,14.10
2013,05,22,12,40,14.20
2013,05,22,12,41,14.30
2013,05,22,12,42,14.40
2013,05,22,12,43,14.40
2013,05,22,12,44,14.50
2013,05,22,12,45,14.60
2013,05,22,12,46,14.60
2013,05,22,12,47,14.60
2013,05,22,12,48,14.60
2013,05,22,12,49,14.70
2013,05,22,12,50,14.70
2013,05,22,12,51,14.70
2013,05,22,12,52,14.70
2013,05,22,12,53,14.70
2013,05,22,12,54,14.70
2013,05,22,12,55,14.70
2013,05,22,12,56,14.70
2013,05,22,12,57,14.70
2013,05,22,12,58,14.70
2013,05,22,12,59,14.70
2013,05,22,13,00,14.70
2013,05,22,13,01,14.70
2013,05,22,13,02,14.70
2013,05,22,13,03,14.60
2013,05,22,13,04,14.60
2013,05,22,13,05,14.60
2013,05,22,13,06,14.60
2013,05,22,13,07,14.60
2013,05,22,13,08,14.50
2013,05,22,13,09,14.50
2013,05,22,13,10,14.50
2013,05,22,13,11,14.60
2013,05,22,13,12,14.60
2013,05,22,13,13,14.70
2013,05,22,13,14,14.80
2013,05,22,13,15,14.80
2013,05,22,13,16,14.80
2013,05,22,13,17,14.80
2013,05,22,13,18,14.70
2013,05,22,13,19,14.60
2013,05,22,13,20,14.40
2013,05,22,13,21,14.20
2013,05,22,13,22,14.00
2013,05,22,13,23,13.90
2013,05,22,13,24,13.70
2013,05,22,13,25,13.70
2013,05,22,13,26,13.70
2013,05,22,13,27,13.70
2013,05,22,13,28,13.80
2013,05,22,13,29,13.90
2013,05,22,13,30,13.90
2013,05,22,13,31,13.80
2013,05,22,13,32,13.70
2013,05,22,13,33,13.80
2013,05,22,13,34,13.90
2013,05,22,13,35,14.00
2013,05,22,13,36,14.20
2013,05,22,13,37,14.30
2013,05,22,13,38,14.30
2013,05,22,13,39,14.30
2013,05,22,13,40,14.30
2013,05,22,13,41,14.30
2013,05,22,13,42,14.50
2013,05,22,13,43,14.60
2013,05,22,13,44,14.80
2013,05,22,13,45,15.00
2013,05,22,13,46,15.00
2013,05,22,13,47,15.10
2013,05,22,13,48,15.20
2013,05,22,13,49,15.30
2013,05,22,13,50,15.30
2013,05,22,13,51,15.40
2013,05,22,13,52,15.50
2013,05,22,13,53,15.50
2013,05,22,13,54,15.30
2013,05,22,13,55,15.30
2013,05,22,13,56,15.20
2013,05,22,13,57,15.10
2013,05,22,13,58,15.20
2013,05,22,13,59,15.20
2013,05,22,14,00,15.10
2013,05,22,14,01,15.00
2013,05,22,14,02,14.80
2013,05,22,14,03,14.80
2013,05,22,14,04,14.90
2013,05,22,14,05,15.00
2013,05,22,14,06,15.10
2013,05,22,14,07,15.20
2013,05,22,14,08,15.20
2013,05,22,14,09,15.30
2013,05,22,14,10,15.40
2013,05,22,14,11,15.50
2013,05,22,14,12,15.60
2013,05,22,14,13,15.80
2013,05,22,14,14,15.80
2013,05,22,14,15,15.90
2013,05,22,14,16,15.80
2013,05,22,14,17,15.70
2013,05,22,14,18,15.70
2013,05,22,14,19,15.70
2013,05,22,14,20,15.60
2013,05,22,14,21,15.60
2013,05,22,14,22,15.40
2013,05,22,14,23,15.20
2013,05,22,14,24,15.00
2013,05,22,14,25,14.90
2013,05,22,14,26,15.00
2013,05,22,14,27,15.10
2013,05,22,14,28,15.20
2013,05,22,14,29,15.30
2013,05,22,14,30,15.40
2013,05,22,14,31,15.50
2013,05,22,14,32,15.60
2013,05,22,14,33,15.50
2013,05,22,14,34,15.40
2013,05,22,14,35,15.30
2013,05,22,14,36,15.30
2013,05,22,14,37,15.30
2013,05,22,14,38,15.40
2013,05,22,14,39,15.40
2013,05,22,14,40,15.30
2013,05,22,14,41,15.10
2013,05,22,14,42,14.90
2013,05,22,14,43,14.70
2013,05,22,14,44,14.60
2013,05,22,14,45,14.50
2013,05,22,14,46,14.40
2013,05,22,14,47,14.20
2013,05,22,14,48,14.20
2013,05,22,14,49,14.10
2013,05,22,14,50,14.10
2013,05,22,14,51,14.20
2013,05,22,14,52,14.40
2013,05,22,14,53,14.50
2013,05,22,14,54,14.70
2013,05,22,14,55,14.80
2013,05,22,14,56,14.90
2013,05,22,14,57,15.00
2013,05,22,14,58,15.00
2013,05,22,14,59,14.90
2013,05,22,15,00,14.80
2013,05,22,15,01,14.80
2013,05,22,15,02,14.80
2013,05,22,15,03,14.90
2013,05,22,15,04,15.00
2013,05,22,15,05,15.00
2013,05,22,15,06,15.00
2013,05,22,15,07,15.00
2013,05,22,15,08,15.10
2013,05,22,15,09,15.10
2013,05,22,15,10,15.20
2013,05,22,15,11,15.20
2013,05,22,15,12,15.30
2013,05,22,15,13,15.40
2013,05,22,15,14,15.50
2013,05,22,15,15,15.50
2013,05,22,15,16,15.40
2013,05,22,15,17,15.30
2013,05,22,15,18,15.30
2013,05,22,15,19,15.20
2013,05,22,15,20,15.00
2013,05,22,15,21,14.80
2013,05,22,15,22,14.50
2013,05,22,15,23,14.30
2013,05,22,15,24,14.20
2013,05,22,15,25,14.10
2013,05,22,15,26,14.00
2013,05,22,15,27,13.90
2013,05,22,15,28,13.80
2013,05,22,15,29,13.70
2013,05,22,15,30,13.70
2013,05,22,15,31,13.60
2013,05,22,15,32,13.60
2013,05,22,15,33,13.50
2013,05,22,15,34,13.60
2013,05,22,15,35,13.70
2013,05,22,15,36,13.70
2013,05,22,15,37,13.70
2013,05,22,15,38,13.70
2013,05,22,15,39,13.80
2013,05,22,15,40,13.90
2013,05,22,15,41,13.80
2013,05,22,15,42,13.70
2013,05,22,15,43,13.70
2013,05,22,15,44,13.70
2013,05,22,15,45,13.70
2013,05,22,15,46,13.70
2013,05,22,15,47,13.80
2013,05,22,15,48,13.70
2013,05,22,15,49,13.70
2013,05,22,15,50,13.70
2013,05,22,15,51,13.70
2013,05,22,15,52,13.70
2013,05,22,15,53,13.70
2013,05,22,15,54,13.70
2013,05,22,15,55,13.70
2013,05,22,15,56,13.70
2013,05,22,15,57,13.70
2013,05,22,15,58,13.70
2013,05,22,15,59,13.70
2013,05,22,16,00,13.70
2013,05,22,16,01,13.70
2013,05,22,16,02,13.70
2013,05,22,16,03,13.80
2013,05,22,16,04,13.80
2013,05,22,16,05,13.80
2013,05,22,16,06,13.90
2013,05,22,16,07,13.90
2013,05,22,16,08,13.90
2013,05,22,16,09,13.90
2013,05,22,16,10,13.90
2013,05,22,16,11,14.00
2013,05,22,16,12,14.00
2013,05,22,16,13,14.10
2013,05,22,16,14,14.20
2013,05,22,16,15,14.20
2013,05,22,16,16,14.30
2013,05,22,16,17,14.30
2013,05,22,16,18,14.40
2013,05,22,16,19,14.40
2013,05,22,16,20,14.50
2013,05,22,16,21,14.50
2013,05,22,16,22,14.50
2013,05,22,16,23,14.60
2013,05,22,16,24,14.70
2013,05,22,16,25,14.80
2013,05,22,16,26,14.70
2013,05,22,16,27,14.60
2013,05,22,16,28,14.40
2013,05,22,16,29,14.10
2013,05,22,16,30,13.90
2013,05,22,16,31,13.70
2013,05,22,16,32,13.70
2013,05,22,16,33,13.70
2013,05,22,16,34,13.80
2013,05,22,16,35,13.90
2013,05,22,16,36,13.90
2013,05,22,16,37,13.90
2013,05,22,16,38,14.00
2013,05,22,16,39,14.00
2013,05,22,16,40,14.00
2013,05,22,16,41,14.00
2013,05,22,16,42,14.10
2013,05,22,16,43,14.10
2013,05,22,16,44,14.10
2013,05,22,16,45,14.00
2013,05,22,16,46,14.00
2013,05,22,16,47,13.90
2013,05,22,16,48,13.90
2013,05,22,16,49,13.90
2013,05,22,16,50,13.90
2013,05,22,16,51,13.80
2013,05,22,16,52,13.80
2013,05,22,16,53,13.70
2013,05,22,16,54,13.70
2013,05,22,16,55,13.70
2013,05,22,16,56,13.60
2013,05,22,16,57,13.60
2013,05,22,16,58,13.50
2013,05,22,16,59,13.50
2013,05,22,17,00,13.50
2013,05,22,17,01,13.50
2013,05,22,17,02,13.40
2013,05,22,17,03,13.30
2013,05,22,17,04,13.10
2013,05,22,17,05,13.00
2013,05,22,17,06,12.80
2013,05,22,17,07,12.80
2013,05,22,17,08,12.80
2013,05,22,17,09,12.80
2013,05,22,17,10,12.80
2013,05,22,17,11,12.80
2013,05,22,17,12,12.80
2013,05,22,17,13,12.90
2013,05,22,17,14,13.00
2013,05,22,17,15,12.90
2013,05,22,17,16,13.00
2013,05,22,17,17,13.10
2013,05,22,17,18,13.10
2013,05,22,17,19,13.10
2013,05,22,17,20,13.00
2013,05,22,17,21,13.10
2013,05,22,17,22,13.10
2013,05,22,17,23,13.10
2013,05,22,17,24,13.20
2013,05,22,17,25,13.20
2013,05,22,17,26,13.30
2013,05,22,17,27,13.40
2013,05,22,17,28,13.40
2013,05,22,17,29,13.50
2013,05,22,17,30,13.60
2013,05,22,17,31,13.80
2013,05,22,17,32,13.80
2013,05,22,17,33,13.90
2013,05,22,17,34,14.00
2013,05,22,17,35,14.10
2013,05,22,17,36,14.20
2013,05,22,17,37,14.20